Theta_e
304 304 304 304 304 304 305 305 304 304 302 297 295 297 291 288 284 296 300 302 300 292 284 287 286 285 288 292 291 293 291 289 291 289 291 289 290 290 289 288 287 288 287 287 285 282 281 281 280 281 283 284 286 285 287 288 288 289 282 284 286 299 282 282 278 280 283 287 287 288 289 290 286 287 287 285 284 285 284 278 279 281 281 281 279 278 277
304 304 304 304 304 304 305 305 305 305 303 298 296 291 290 291 291 294 302 303 300 291 281 282 283 286 290 290 289 293 291 291 289 289 290 288 284 288 288 289 291 289 290 288 286 285 279 283 283 282 283 285 288 286 287 289 287 288 284 285 292 281 279 278 276 278 282 281 284 286 287 288 284 282 284 286 285 284 283 283 282 282 283 284 281 277 279
304 304 304 304 304 304 305 305 305 305 305 302 294 289 292 292 293 294 297 301 297 286 289 285 284 285 285 286 285 287 289 292 291 291 289 292 290 289 287 289 290 289 289 287 288 288 283 280 284 284 285 286 289 287 288 288 287 290 291 302 292 284 279 281 273 273 272 273 274 275 278 282 283 284 284 286 287 284 284 281 282 279 281 282 281 280 287
304 304 304 304 305 305 305 305 305 305 305 302 297 292 292 290 282 287 292 296 295 293 296 291 286 285 285 284 286 288 287 292 294 294 290 291 292 290 290 290 291 289 288 286 287 288 287 283 282 283 283 285 288 286 287 289 288 297 304 300 292 282 282 281 278 276 275 278 277 281 282 281 282 283 285 285 286 287 286 281 279 279 278 282 283 289 290
304 304 304 304 304 305 305 305 305 305 305 304 299 296 292 290 284 284 283 288 290 289 292 289 290 285 289 283 287 285 287 289 290 297 287 294 291 291 290 290 289 288 289 285 286 288 289 290 283 283 284 284 286 288 288 288 293 305 303 298 288 282 282 282 282 282 282 280 281 285 287 284 283 283 284 285 286 285 285 282 282 281 284 279 286 293 291
304 304 304 304 305 305 305 305 306 305 305 304 300 292 294 285 287 291 291 285 281 283 285 290 288 290 290 285 289 286 286 287 284 287 294 295 294 288 289 290 291 291 290 287 285 285 286 286 282 288 289 289 290 286 288 287 295 304 296 295 289 283 280 282 283 284 287 287 285 288 287 287 284 283 284 284 285 284 286 284 282 286 282 282 287 292 291
304 304 304 304 304 305 305 306 306 305 304 303 298 290 295 294 293 294 299 288 288 286 288 291 290 289 289 286 287 285 285 284 289 288 290 291 289 292 284 288 290 291 292 288 284 283 284 283 288 286 286 287 285 285 286 287 290 295 292 291 287 286 280 282 285 285 286 286 286 287 288 285 285 285 285 285 284 286 287 284 284 285 282 283 290 292 293
303 304 304 304 304 305 305 305 306 305 303 301 297 295 292 291 291 290 296 293 290 289 288 288 289 286 291 286 287 287 285 286 287 287 288 282 287 292 288 289 290 291 290 286 286 287 286 287 286 290 287 287 285 283 282 284 290 289 289 290 288 287 280 290 282 284 286 286 287 287 286 284 284 284 283 284 283 284 283 285 286 288 287 287 291 291 289
303 303 303 304 304 304 305 305 306 305 304 298 296 296 299 297 300 298 293 289 291 292 290 290 289 286 286 286 286 288 286 288 290 289 292 289 287 290 288 290 291 290 290 291 291 292 291 290 292 292 289 287 290 287 289 287 286 287 289 290 289 289 283 284 281 282 283 286 285 284 285 285 283 283 284 285 285 285 285 285 285 285 285 289 291 289 287
302 303 303 303 303 304 304 305 305 305 304 299 298 294 302 300 304 302 296 287 292 289 293 292 290 285 288 288 289 289 288 290 292 284 286 291 292 292 291 291 289 287 290 291 292 295 293 294 296 296 295 296 296 294 294 289 288 286 289 288 286 286 287 284 280 283 276 286 284 284 282 284 283 283 286 287 284 283 285 286 289 289 292 289 287 289 295
302 302 302 303 303 303 304 304 305 305 304 299 297 296 298 295 294 296 297 286 287 290 290 290 287 290 293 294 291 290 289 289 290 285 283 290 292 294 293 291 290 285 288 294 298 299 298 297 298 298 298 296 296 295 295 295 294 291 289 287 286 290 291 284 283 283 280 285 283 285 281 275 276 284 290 289 285 284 286 285 286 290 289 287 289 290 296
302 302 302 302 303 303 303 304 305 305 304 303 302 298 300 301 298 297 290 285 286 292 290 288 289 290 290 292 290 288 288 289 288 289 286 287 291 293 293 291 290 286 295 297 299 298 298 299 295 296 293 292 295 296 296 294 293 293 291 290 288 290 287 284 284 283 282 282 284 280 276 277 284 289 289 290 289 287 286 286 285 287 287 287 289 294 296
301 302 302 302 302 303 303 303 304 304 305 304 302 297 302 304 297 294 292 290 286 290 288 291 294 293 293 294 292 291 292 292 292 291 290 290 290 291 292 292 291 295 299 297 296 295 292 289 289 289 290 289 289 293 293 293 293 293 292 292 292 286 286 280 281 278 281 280 278 276 276 284 289 288 288 289 289 287 288 288 288 286 286 289 291 295 296
301 301 301 301 302 302 303 303 303 304 305 305 301 300 301 302 296 295 293 288 287 292 293 291 293 292 291 290 290 291 290 290 289 291 289 291 290 291 294 296 297 297 298 295 291 289 287 282 281 282 286 284 284 286 289 290 292 291 291 290 292 291 285 285 282 282 281 280 280 280 285 286 286 285 286 289 287 289 287 284 286 288 286 289 292 294 296
301 301 301 301 301 302 302 303 303 303 304 305 302 301 301 302 300 297 298 294 287 290 291 286 290 292 292 291 290 288 284 284 286 286 290 292 291 294 295 298 299 299 300 298 288 286 285 281 281 281 281 280 277 281 286 287 290 292 290 289 289 289 291 286 287 280 280 279 277 280 277 277 281 287 289 291 288 289 287 288 286 287 287 291 295 294 295
300 300 301 301 301 302 302 302 303 303 304 305 302 301 300 302 303 300 297 293 290 286 289 295 297 294 291 289 290 289 286 282 284 283 284 286 291 293 297 298 296 298 297 291 286 282 281 284 278 275 277 278 279 283 284 288 287 291 290 290 291 289 290 287 288 283 280 277 278 276 278 278 285 287 289 291 290 291 288 287 284 286 291 293 296 295 296
300 300 301 301 301 302 302 302 303 303 304 304 300 300 299 303 301 299 296 296 295 288 297 298 297 295 292 288 288 286 287 287 287 284 284 286 290 293 295 296 294 297 293 288 285 282 281 281 278 278 280 282 281 281 286 285 285 285 291 287 288 286 281 283 283 278 276 278 276 275 275 279 287 285 290 291 291 291 289 279 280 287 292 296 297 296 296
300 300 300 301 301 301 302 302 303 303 304 304 302 299 298 303 303 302 298 296 291 291 296 300 298 293 291 291 288 290 292 291 288 287 287 288 289 291 292 294 292 295 297 289 284 281 279 275 278 277 279 286 287 286 280 283 283 282 285 283 281 280 281 281 283 280 278 279 274 273 278 283 284 288 291 291 292 290 281 280 280 290 294 296 297 297 297
299 300 300 300 301 301 302 302 303 303 304 304 302 300 299 301 303 302 299 298 296 288 297 301 303 299 299 301 295 295 297 294 292 287 284 284 290 293 294 293 294 290 290 285 282 281 280 282 282 279 281 281 286 282 284 283 281 286 284 283 284 282 280 281 280 280 280 273 278 279 275 282 287 289 292 292 290 281 282 286 288 294 295 297 298 297 297
299 299 300 300 301 301 302 302 303 303 304 304 302 296 298 300 302 302 299 296 298 296 299 300 300 297 300 298 294 293 293 291 287 288 286 285 290 292 287 287 289 292 289 284 283 282 281 282 281 282 279 280 283 284 281 283 287 283 283 283 282 285 283 281 281 278 277 272 274 276 277 283 293 293 291 292 284 283 283 287 291 295 296 296 296 297 296
299 299 300 300 301 301 302 302 303 303 303 304 303 298 296 299 298 300 302 300 297 291 292 297 302 300 301 300 301 300 297 294 293 291 291 288 292 288 282 282 286 287 286 286 284 283 280 282 282 282 284 283 287 286 282 279 285 288 289 286 285 286 284 278 278 282 280 273 277 276 281 284 294 296 290 290 288 289 289 292 291 292 295 295 295 294 296
299 299 299 300 301 302 302 302 303 303 304 304 303 300 294 297 299 302 303 302 296 292 294 299 303 302 304 305 304 303 302 301 300 300 295 290 291 292 290 289 290 289 289 286 285 284 284 282 283 282 283 284 283 282 283 280 280 284 288 287 284 285 283 282 283 283 278 277 280 280 285 288 289 289 290 288 291 291 292 293 295 294 293 293 295 294 293
298 299 299 300 301 301 301 302 302 303 303 304 302 298 295 298 298 300 302 298 300 301 302 301 303 301 301 302 306 307 306 306 305 302 301 296 287 287 291 290 289 293 293 291 288 284 285 284 283 283 283 283 286 282 282 280 278 284 284 289 286 290 288 285 285 284 285 285 285 286 287 287 289 289 289 290 290 292 292 293 294 294 296 296 295 294 293
298 298 299 299 300 301 301 302 302 303 303 303 302 299 298 299 299 299 299 301 295 291 289 291 291 288 291 296 299 298 303 302 303 305 304 301 290 286 287 292 294 294 290 290 289 292 285 282 286 284 284 285 285 280 283 280 279 284 284 285 284 288 289 286 285 286 286 282 286 286 287 286 288 289 290 290 291 291 292 293 293 293 294 293 293 294 294
298 298 299 299 300 300 301 301 302 302 303 303 302 302 301 298 298 298 296 289 285 286 286 286 286 294 297 299 300 297 296 299 299 304 304 304 300 293 290 297 296 295 293 294 288 288 282 284 286 284 283 286 289 283 282 283 284 285 283 283 285 288 290 287 284 283 281 281 286 287 287 287 288 288 289 290 290 291 291 292 293 293 293 293 293 294 293
298 298 299 299 300 300 301 301 301 302 302 303 303 299 297 295 295 296 296 294 290 288 286 282 287 295 296 299 297 298 300 297 296 297 299 300 300 298 297 296 296 293 291 289 291 286 281 283 279 280 284 287 289 282 280 284 286 284 285 284 287 289 292 284 285 285 284 286 287 287 289 289 289 290 289 290 290 291 291 292 293 293 293 292 293 295 294
298 298 298 299 300 301 301 301 301 301 302 302 301 300 299 298 297 296 292 291 289 283 282 281 284 289 294 295 297 298 296 296 296 295 295 295 295 294 294 293 293 290 291 291 286 282 282 283 283 285 283 287 285 284 284 287 284 284 284 288 288 289 285 285 285 284 282 285 285 289 286 286 287 287 289 290 291 292 292 292 292 293 292 293 293 293 294
298 298 298 299 300 300 301 301 301 301 302 302 301 299 297 296 295 297 296 295 292 284 282 279 284 291 294 291 295 295 296 298 295 295 293 293 293 294 293 291 288 290 288 290 291 286 281 284 287 283 282 286 286 285 284 285 284 284 284 287 287 285 284 285 283 283 282 287 288 288 286 286 287 289 289 290 292 293 292 292 292 293 293 294 293 292 293
298 298 299 299 300 300 301 301 301 301 302 301 299 296 293 296 296 298 298 297 293 290 285 286 288 288 287 292 296 295 293 295 295 293 293 292 293 292 292 290 288 286 286 285 283 282 282 285 282 286 288 288 286 284 284 283 280 280 281 286 287 287 288 291 289 286 288 289 290 289 288 287 288 289 290 291 291 293 292 292 293 293 293 294 294 294 293
298 298 299 299 300 301 301 301 301 301 301 299 297 287 285 292 295 296 298 300 296 294 287 284 282 284 290 292 292 292 292 293 293 293 293 291 292 292 291 291 289 289 288 286 283 284 284 284 280 282 287 287 287 280 277 279 279 284 283 285 287 288 289 289 290 291 290 290 289 288 288 289 290 290 290 290 292 293 292 292 292 292 293 295 294 294 294
298 299 299 299 300 300 301 301 301 301 301 297 293 282 283 283 292 297 301 299 297 293 286 285 286 286 285 289 290 291 292 293 293 291 292 291 291 291 291 290 289 290 286 282 283 284 282 283 281 287 286 288 281 277 280 279 280 281 287 287 286 288 289 289 287 289 291 290 291 291 290 290 290 291 290 289 290 292 292 291 293 295 294 295 294 294 294
298 299 299 299 300 300 300 301 301 301 298 295 290 284 285 289 292 296 301 302 297 294 291 285 281 281 281 284 287 291 291 293 291 290 289 291 293 290 288 291 290 287 288 282 282 282 284 281 282 284 286 288 284 277 279 277 278 283 286 285 286 287 288 288 290 291 292 293 293 291 290 288 290 289 289 289 290 291 292 291 292 293 295 295 295 295 295
298 299 299 299 300 300 300 301 301 300 296 299 302 303 303 303 304 304 303 295 294 285 284 285 281 281 279 285 289 290 293 291 290 287 289 289 292 287 287 287 285 286 294 287 284 284 283 279 280 283 287 283 278 276 277 276 281 282 284 287 286 287 288 289 290 291 292 292 291 289 288 289 289 288 290 290 291 291 292 292 292 293 294 294 293 293 293
298 299 299 299 300 300 300 301 301 301 301 298 292 291 294 302 301 304 297 293 288 285 284 286 282 280 282 284 287 289 292 288 286 284 284 287 287 288 285 285 285 286 288 287 284 284 284 282 284 281 281 281 277 279 282 282 280 283 285 286 286 286 288 289 288 290 289 287 287 289 290 290 290 290 291 290 290 291 292 292 293 294 293 293 292 292 292
298 298 299 299 300 300 300 301 295 292 288 287 288 289 293 304 303 304 301 293 288 283 282 282 281 280 278 277 273 281 289 289 287 284 284 287 287 288 285 284 281 283 286 286 279 279 279 284 284 283 283 281 281 281 276 279 283 286 285 286 287 288 289 289 289 289 288 288 290 290 291 291 291 289 289 289 290 291 292 292 294 294 292 291 290 290 291
298 298 299 299 299 300 296 298 293 290 286 286 287 296 302 303 303 299 297 296 289 279 277 278 279 279 278 277 277 283 289 288 284 283 284 282 284 285 282 282 282 285 283 282 283 279 281 285 285 281 274 278 277 279 281 281 285 285 285 287 289 290 289 289 290 287 287 289 290 290 291 291 291 289 289 290 290 291 292 292 293 293 291 289 289 290 290
298 299 299 298 294 293 286 284 290 292 290 294 297 301 302 302 299 298 294 295 295 293 288 277 281 280 282 279 277 280 285 281 281 281 279 282 281 278 280 280 281 282 280 279 276 281 284 284 277 276 277 278 279 279 282 284 286 287 286 287 290 287 287 289 289 290 289 289 290 290 290 289 289 289 290 289 290 292 292 292 291 290 289 288 288 289 290
298 298 292 288 286 284 284 287 289 294 299 299 299 293 289 291 287 284 286 287 286 294 282 283 279 279 282 283 281 286 285 279 281 283 280 278 280 282 278 281 281 282 280 276 278 285 278 276 276 278 277 280 281 283 284 285 287 287 287 288 289 287 289 290 291 291 289 288 286 287 288 288 288 288 289 288 289 291 292 292 291 291 290 289 289 290 290
295 289 286 285 285 283 284 288 294 299 295 295 292 288 288 281 283 283 283 282 282 285 281 282 280 281 282 282 284 287 287 285 279 277 280 281 281 278 279 279 280 278 274 276 280 283 281 275 271 272 274 276 282 286 286 285 286 287 288 288 289 290 291 291 292 292 291 291 290 291 291 290 289 288 288 289 288 290 291 291 291 290 290 290 290 290 290
287 286 281 281 280 283 290 294 297 294 293 288 282 282 283 281 282 281 280 282 283 278 280 282 281 282 285 286 283 281 285 284 282 278 276 279 284 280 278 277 277 277 275 272 276 278 280 277 271 273 274 274 280 282 285 287 288 287 288 288 289 289 291 292 292 292 292 293 293 292 291 292 292 291 290 290 289 288 289 290 290 289 289 289 289 289 289
288 287 283 279 285 288 291 293 293 289 284 284 284 280 278 280 280 280 280 275 276 279 282 281 280 283 284 283 283 282 284 288 283 281 277 280 282 281 276 277 278 277 272 272 274 273 271 273 269 274 277 276 279 283 286 286 287 287 287 288 289 290 290 290 290 291 292 291 290 290 291 292 292 291 291 290 290 289 289 288 288 288 287 287 287 288 289
290 290 291 293 293 293 293 291 285 285 283 283 280 277 277 279 280 280 279 278 277 274 280 284 281 280 281 284 284 283 284 288 283 278 279 280 283 279 276 274 274 273 272 274 274 271 273 274 269 267 275 278 279 283 286 286 287 288 287 288 290 290 290 290 291 290 292 293 292 291 291 292 292 291 291 290 289 289 288 288 288 287 287 287 288 288 288
297 295 294 291 289 287 285 284 282 281 280 278 275 276 276 276 278 280 279 277 277 282 283 285 283 284 287 288 286 286 285 287 288 282 280 281 279 275 273 272 273 273 277 275 271 269 272 270 267 274 280 279 281 285 287 288 288 287 287 288 290 291 292 291 292 292 292 293 293 292 291 291 292 292 291 290 289 288 289 289 288 288 287 287 288 287 288
293 293 290 286 284 282 281 280 283 282 278 275 274 274 275 276 276 276 278 281 281 281 282 284 282 282 281 282 285 282 283 286 283 278 279 277 277 274 273 274 275 276 277 272 271 275 272 266 274 276 276 279 284 284 285 286 287 286 287 288 288 289 289 290 290 291 290 289 289 290 291 291 291 291 290 289 290 289 288 288 288 288 287 287 287 287 287
286 284 282 281 279 281 279 275 278 277 275 275 277 274 274 275 276 274 279 280 282 284 283 282 282 283 282 282 283 283 283 283 282 281 280 278 275 274 275 275 272 270 273 272 267 267 271 273 276 277 279 280 284 286 286 287 288 290 289 286 287 288 289 290 290 291 290 290 290 290 290 290 291 290 290 289 289 290 289 288 287 287 287 288 287 286 286
284 281 278 275 274 276 275 272 274 276 276 276 277 275 276 276 279 280 280 281 282 283 283 283 282 283 281 280 283 284 278 279 282 279 277 274 275 276 275 275 274 273 270 266 268 268 270 274 277 280 281 283 285 287 287 287 287 287 290 289 288 288 289 290 290 291 291 290 289 290 290 290 290 290 290 289 288 289 290 289 288 288 288 287 287 287 286
283 283 279 277 274 275 278 274 275 276 279 280 279 276 278 281 280 281 281 283 283 283 283 283 283 283 282 280 283 281 278 277 280 279 278 279 276 277 277 277 274 268 270 268 266 263 267 275 275 277 280 281 284 286 288 287 288 288 290 289 288 289 289 289 290 290 290 290 289 289 289 289 289 290 289 288 287 288 288 289 288 288 289 288 288 287 287
281 281 281 275 273 275 277 276 278 279 278 279 280 278 279 279 280 280 282 282 283 283 283 283 281 280 284 281 283 280 279 277 279 279 278 278 278 272 270 270 267 267 268 270 267 269 274 276 278 281 281 283 287 288 288 288 288 288 289 289 289 289 289 289 289 289 289 290 289 290 289 288 289 288 288 288 287 287 288 289 289 289 289 288 287 287 287
283 281 280 276 277 278 275 275 279 281 279 278 278 279 279 280 280 282 284 281 282 284 284 283 278 280 281 281 279 281 281 280 278 278 279 276 274 273 271 269 267 270 270 272 273 276 277 281 280 279 281 284 287 289 290 290 290 290 289 290 290 290 290 290 290 290 289 290 290 290 289 289 288 288 288 287 288 287 288 288 289 289 289 288 287 287 287
282 278 279 278 277 274 277 277 277 275 277 279 278 279 279 279 280 282 282 284 284 283 283 283 283 284 282 282 278 276 278 278 277 278 275 274 270 271 269 269 268 271 269 274 275 277 279 280 279 282 283 285 286 289 289 289 289 290 290 290 290 290 290 290 290 289 289 290 290 290 289 288 288 288 288 288 289 288 287 288 288 289 288 288 288 288 288
280 280 277 276 278 275 277 275 274 274 277 278 278 279 279 280 280 282 283 284 284 282 277 280 279 280 280 276 276 276 278 279 279 277 275 274 274 272 273 273 272 274 277 279 279 279 280 279 281 283 282 285 287 289 290 291 291 291 291 291 290 290 290 290 290 290 289 290 290 287 289 289 289 289 289 289 288 288 287 288 288 289 289 288 289 289 288
276 276 277 277 279 278 279 278 278 279 278 279 279 278 280 281 280 283 283 283 281 279 278 277 279 278 275 276 276 278 281 277 275 275 276 275 275 274 273 273 277 278 279 279 282 281 280 280 281 284 285 286 287 289 290 290 290 290 291 291 290 290 290 290 290 290 290 289 289 289 290 290 289 289 288 288 287 287 287 287 287 288 288 288 289 289 290
Wind_Speed
20 19 20 20 20 19 18 17 15 12 6 3 4 2 2 3 0 2 0 3 1 3 0 1 1 1 2 4 5 4 5 5 4 6 6 3 1 0 1 3 2 2 1 0 2 5 2 4 3 2 3 2 6 5 11 9 11 9 3 4 4 3 1 3 3 4 6 4 3 1 5 10 3 5 3 7 6 6 7 6 7 6 3 2 1 2 3
20 21 21 21 21 20 19 17 16 15 3 0 2 1 1 1 1 1 2 2 1 1 1 2 2 3 3 3 5 4 5 5 8 4 4 2 2 0 1 2 1 0 1 0 1 3 3 2 5 0 0 1 6 8 8 11 6 10 6 6 3 3 2 6 2 1 1 4 3 1 2 1 2 4 3 6 4 3 2 5 2 4 7 8 8 8 3
21 21 22 21 22 20 19 17 15 13 9 1 1 1 1 1 1 1 1 1 2 2 1 2 2 2 4 3 6 5 3 8 12 8 4 2 3 0 2 2 1 1 0 1 1 0 2 1 2 3 3 3 0 5 11 8 6 5 7 7 6 4 3 4 4 7 6 6 7 6 2 7 2 1 4 5 9 7 4 4 2 5 1 5 4 1 4
21 22 22 22 23 22 18 15 12 10 8 2 0 1 1 1 1 1 1 1 2 3 1 3 3 4 4 3 5 5 5 3 6 8 6 6 3 2 2 2 1 1 1 1 1 1 1 2 2 3 3 3 1 5 9 9 6 6 13 9 9 2 1 3 6 7 7 7 4 2 2 4 3 3 7 6 4 7 5 5 5 7 4 5 3 7 8
23 22 22 22 23 22 20 16 13 8 5 1 1 2 1 1 1 2 1 0 3 3 1 4 4 2 2 3 3 4 4 6 4 3 1 2 4 1 3 1 1 1 1 1 2 0 2 1 4 6 5 3 1 1 12 9 10 10 8 11 6 4 3 4 6 5 6 4 2 1 1 4 7 5 7 7 9 6 8 8 9 6 10 4 1 8 14
24 23 23 22 22 22 19 16 14 11 2 1 1 2 1 0 1 1 3 2 2 1 4 7 7 8 5 3 3 5 6 3 2 4 3 3 2 1 1 0 0 2 3 2 4 2 2 3 6 4 1 2 1 4 1 6 8 9 4 6 4 5 5 3 4 3 0 0 2 2 1 1 2 6 8 9 8 6 9 7 4 10 7 9 11 14 12
24 24 23 23 23 22 20 17 16 11 4 2 1 1 2 2 2 3 0 0 2 4 2 3 5 6 6 2 2 3 2 5 1 1 4 3 1 0 1 6 7 3 1 3 3 3 5 1 1 4 4 3 3 1 1 2 2 5 4 4 1 5 3 3 2 3 1 4 1 1 4 2 2 1 1 2 8 11 10 4 1 6 2 4 18 17 15
23 23 22 22 24 22 20 19 15 10 2 1 1 2 2 2 2 2 1 3 3 3 0 1 1 3 4 2 5 2 2 4 4 3 0 3 3 1 2 8 9 5 3 3 3 3 3 6 4 3 5 1 1 3 5 3 1 4 5 5 1 4 2 5 2 3 0 4 4 5 2 1 4 2 2 2 3 2 1 3 3 7 7 2 13 13 3
23 23 22 21 22 23 22 21 17 12 3 2 2 3 3 3 3 5 4 4 3 1 1 1 1 1 1 2 3 2 2 1 2 5 3 4 2 2 4 5 9 3 5 7 5 2 2 1 2 7 7 9 5 5 3 4 5 6 3 1 1 2 1 2 2 4 1 2 4 4 5 3 4 1 2 2 5 7 2 3 4 5 6 9 11 8 3
23 23 22 22 21 21 23 22 19 15 9 1 2 3 2 3 3 3 3 3 3 3 3 3 0 2 2 3 2 1 4 2 3 4 3 3 5 2 3 5 2 5 9 7 5 4 1 1 2 6 3 5 5 2 2 3 9 8 6 0 6 3 6 4 2 6 2 1 2 4 1 2 1 3 2 3 3 2 2 2 1 2 14 14 10 12 10
22 22 22 21 21 21 20 21 19 16 9 5 2 3 1 2 4 4 2 1 3 2 2 2 1 2 2 2 3 2 3 3 1 0 3 2 1 2 3 4 3 1 1 2 0 1 1 2 4 4 5 1 6 7 8 9 7 1 8 5 1 6 9 4 1 5 4 1 1 0 4 3 7 1 1 4 1 3 4 2 3 5 5 5 3 3 11
23 22 22 22 22 22 21 19 20 20 12 8 7 5 2 2 4 3 2 1 3 1 1 4 3 2 2 4 1 2 5 6 4 3 4 2 6 5 2 1 1 3 1 1 0 2 2 1 3 1 3 3 4 13 13 12 7 3 1 5 7 8 5 6 1 5 3 0 1 4 2 8 1 3 3 6 5 3 4 1 2 3 0 2 3 9 18
23 22 22 22 22 22 21 21 19 18 15 8 7 6 2 1 2 3 3 2 3 3 4 5 3 5 5 6 3 4 7 7 4 5 4 4 5 3 2 0 0 2 2 3 3 4 1 2 1 0 2 3 1 9 14 11 10 8 5 1 10 9 9 4 3 2 3 2 1 4 5 3 4 3 2 3 3 2 4 1 2 3 3 6 7 9 9
23 23 22 22 22 22 22 21 21 19 18 11 7 6 5 2 3 2 1 2 4 2 3 7 4 3 4 4 2 5 3 4 3 2 2 3 5 5 5 3 4 1 0 3 6 2 1 4 1 3 2 5 3 5 4 3 7 9 7 7 1 14 6 7 3 1 4 3 2 3 3 4 1 4 2 6 5 7 6 5 8 6 4 5 8 9 10
23 23 23 22 21 21 21 21 21 20 18 15 7 6 4 3 3 3 3 2 3 5 1 2 7 5 4 3 1 4 2 3 3 1 3 0 2 6 6 5 3 2 0 0 2 5 1 2 1 1 2 2 1 1 3 2 4 4 3 3 5 0 11 5 8 1 4 6 2 1 2 2 5 9 1 4 1 3 2 2 2 2 4 6 12 14 14
23 23 23 23 22 21 21 21 20 20 19 18 7 6 6 4 2 3 3 2 2 5 2 2 1 2 3 3 0 1 2 3 2 2 4 1 4 6 4 5 3 2 3 5 3 4 1 1 2 2 1 2 1 1 1 2 2 3 3 4 7 7 6 4 7 6 3 3 5 3 5 7 6 4 2 4 2 2 2 2 6 4 10 9 14 15 16
24 24 24 24 23 22 22 21 21 21 19 20 10 7 4 0 3 3 3 2 2 4 6 6 3 2 2 5 3 1 1 1 1 1 2 3 3 3 8 5 1 1 2 4 4 2 2 4 1 2 0 1 1 1 1 2 2 3 3 5 8 6 3 3 7 4 1 6 4 4 4 1 1 2 3 5 4 3 2 1 7 8 13 14 16 19 19
24 24 24 24 24 23 23 21 22 22 19 19 11 7 4 1 2 2 3 2 2 4 3 1 4 3 2 1 1 2 0 1 1 1 1 3 2 3 3 3 4 2 1 2 1 4 2 2 1 1 1 1 0 0 3 2 4 4 2 1 1 3 2 4 8 7 3 6 0 3 4 4 1 3 5 5 4 3 2 9 3 8 13 15 16 18 18
24 24 23 23 23 23 23 22 22 22 22 21 12 5 1 1 2 3 3 3 1 3 6 2 2 3 2 1 0 1 0 1 0 0 4 3 1 3 2 2 0 1 6 3 3 2 1 1 0 1 3 1 1 2 0 1 2 0 3 2 1 1 2 1 4 5 7 5 6 6 3 4 4 1 6 4 4 3 8 6 2 9 13 12 14 18 17
24 24 24 23 23 23 23 23 22 21 22 22 12 5 8 4 3 5 5 2 2 5 9 7 2 6 2 2 3 2 2 2 1 2 1 2 3 6 2 3 3 1 1 3 1 1 2 1 1 1 1 1 1 3 2 1 0 2 1 2 3 6 4 3 4 2 5 3 3 2 2 2 7 10 4 1 3 6 4 0 2 4 7 12 8 12 12
24 24 24 24 24 23 23 23 22 22 21 22 15 7 6 2 1 3 4 4 3 5 8 1 1 5 3 6 6 6 1 3 1 1 3 3 4 2 2 3 3 1 0 0 1 1 2 0 1 1 1 3 1 1 3 1 1 2 0 1 1 1 2 0 2 4 6 3 4 4 4 2 8 10 8 6 6 2 4 5 5 4 7 8 8 6 9
24 24 24 24 23 23 22 22 23 23 22 21 17 4 3 3 2 2 4 4 5 5 6 6 3 10 11 9 8 8 10 9 5 2 5 2 2 3 1 1 1 1 1 3 2 1 1 1 1 1 2 1 2 1 2 3 2 1 1 1 0 2 1 4 3 3 4 4 5 2 3 4 4 1 1 2 2 1 4 2 10 11 6 4 9 11 8
24 24 24 24 23 23 23 23 23 23 23 22 14 3 7 8 5 2 3 4 5 6 6 7 6 7 6 6 9 11 10 7 2 1 4 2 4 1 2 1 2 2 0 1 1 2 2 5 2 4 2 2 6 2 2 2 1 1 3 2 1 1 0 0 3 1 2 2 3 2 2 2 2 1 1 1 1 0 2 4 6 3 8 11 12 11 12
24 24 24 24 23 22 23 23 23 22 23 20 14 8 8 5 6 4 2 4 1 6 4 1 3 5 3 7 2 1 1 3 7 6 3 4 1 4 3 3 1 0 0 2 3 1 3 2 1 2 0 2 3 2 5 2 3 3 2 0 1 1 1 1 1 1 3 2 1 1 1 3 1 1 2 1 0 0 2 4 3 5 6 7 6 12 13
24 24 24 24 23 23 23 22 23 23 23 21 15 5 6 5 1 2 1 1 3 1 1 7 3 4 3 3 5 2 3 2 1 0 2 3 6 3 3 1 3 1 2 1 3 4 2 1 1 1 1 1 2 2 1 2 1 3 3 3 1 1 3 3 0 1 2 1 2 3 2 1 2 1 0 0 1 3 3 3 4 6 6 9 11 11 11
24 24 24 24 24 24 24 23 24 23 22 22 16 7 5 6 1 1 0 2 0 0 1 3 6 5 3 7 3 1 1 1 3 3 2 0 3 5 4 1 0 4 4 3 2 2 3 3 2 1 3 1 1 1 2 2 0 0 2 4 4 1 1 2 3 2 2 2 2 2 1 0 1 1 1 1 2 4 5 6 8 10 12 10 8 10 13
25 25 25 24 24 23 25 24 24 22 22 22 12 6 6 7 4 6 4 1 1 2 3 3 5 9 6 7 5 2 2 2 1 2 4 4 3 3 2 1 2 2 2 2 3 4 3 2 2 0 1 0 2 1 2 1 1 2 2 0 0 2 1 1 2 2 2 5 4 5 4 2 4 3 2 3 3 6 7 7 8 10 13 13 13 8 7
25 25 25 25 25 25 25 24 23 22 21 22 13 9 5 5 4 7 4 2 3 0 3 4 6 9 6 3 3 3 5 1 2 4 4 4 5 5 6 3 2 2 1 2 1 2 1 2 1 0 0 1 2 1 1 0 2 3 1 2 2 1 4 5 4 6 1 4 6 6 2 1 3 4 4 4 4 8 11 10 11 9 11 13 16 14 11
25 25 25 25 26 26 25 24 23 21 22 16 9 8 1 4 3 3 2 2 2 1 2 5 5 3 1 4 7 7 2 3 3 4 4 4 5 5 5 4 3 3 3 4 4 3 2 0 1 1 1 2 3 0 0 0 1 2 2 1 1 1 4 5 5 4 1 2 4 5 1 2 3 4 4 4 3 6 6 5 7 10 12 12 14 16 17
25 26 25 26 26 25 25 24 23 20 17 8 5 3 2 1 0 2 2 5 4 1 1 2 3 3 3 2 4 3 3 3 4 3 5 4 4 5 3 2 2 1 2 1 2 2 1 2 1 1 2 2 1 1 2 1 1 2 2 2 3 3 2 3 5 1 0 0 4 1 2 4 4 5 4 3 3 6 9 8 9 9 8 9 13 11 13
26 26 26 26 26 25 24 23 21 18 11 5 2 2 1 0 0 1 3 3 5 1 1 1 5 4 5 2 0 4 4 4 3 3 2 1 0 1 1 1 1 1 1 3 3 0 1 2 1 1 1 3 3 2 4 3 0 2 1 1 2 0 3 3 1 1 5 6 5 5 5 5 5 6 4 4 4 5 5 4 4 7 9 9 11 12 11
26 27 26 27 27 25 25 23 19 14 5 4 3 3 2 1 1 7 9 7 0 2 0 2 3 3 1 5 3 1 1 1 1 2 1 3 1 3 3 5 0 2 3 2 1 1 1 1 0 1 2 2 5 3 2 2 1 2 1 2 2 0 1 2 4 4 5 9 12 10 6 3 1 3 5 4 4 4 8 7 6 6 9 8 8 9 11
27 26 27 27 27 27 25 23 18 9 5 8 14 18 18 17 16 12 4 2 3 1 2 1 2 1 1 4 6 3 1 1 2 6 1 2 1 3 2 3 2 2 1 4 3 1 1 1 0 2 1 1 2 1 2 1 2 1 2 2 1 1 1 0 2 4 7 3 2 6 8 8 5 0 6 6 7 8 8 9 6 8 9 11 10 10 10
27 27 28 29 28 27 24 22 18 13 6 2 3 4 4 7 3 3 1 1 1 0 0 0 1 1 4 4 2 3 2 2 1 2 1 2 0 1 1 2 3 2 5 3 1 1 0 1 2 1 2 3 1 1 0 2 2 1 1 1 2 3 4 4 4 4 1 2 3 2 5 7 7 7 7 7 6 4 7 8 9 11 10 11 10 10 11
27 29 29 29 28 25 23 14 1 2 3 3 3 4 2 2 9 7 4 2 1 1 1 0 1 1 3 4 2 4 1 0 1 0 1 2 1 1 1 2 3 4 2 2 4 2 0 0 1 1 0 1 1 1 2 3 2 0 1 2 1 5 5 5 1 1 0 2 5 7 9 10 11 8 7 6 8 7 9 7 9 12 11 9 10 10 11
28 30 29 29 28 15 2 2 1 1 0 1 2 3 10 16 12 4 3 2 1 2 1 1 1 1 2 1 2 2 1 1 0 1 0 1 2 2 2 2 2 0 0 2 0 2 1 1 1 1 1 1 3 3 2 3 4 3 4 4 6 5 3 5 7 4 3 4 7 7 8 7 10 8 7 7 8 7 9 8 8 10 10 9 9 9 9
28 29 29 22 7 2 1 1 1 2 0 4 13 21 23 9 1 0 1 1 0 1 1 1 0 4 4 3 1 5 3 2 4 2 3 2 1 2 3 1 1 2 2 2 3 2 1 1 2 1 0 2 2 4 4 3 5 7 6 5 6 2 4 6 6 8 8 7 7 6 7 8 7 6 8 7 7 7 9 10 8 11 12 11 8 9 10
28 25 7 4 2 0 0 1 0 6 14 16 11 4 2 3 0 1 1 1 2 1 1 1 3 2 0 1 3 2 1 2 2 0 1 1 1 0 0 2 0 0 0 1 2 0 1 4 2 0 4 5 4 4 5 4 6 4 2 4 6 4 5 7 9 11 10 8 5 5 5 6 6 5 9 7 6 8 7 7 7 7 9 9 8 9 9
15 5 3 3 1 1 0 1 7 18 11 5 0 0 1 1 1 0 0 0 1 0 1 2 5 2 4 2 6 3 1 1 2 2 1 1 1 2 1 1 1 2 1 1 1 2 0 1 1 3 4 3 2 1 0 2 3 4 3 3 4 5 7 7 9 14 12 10 12 11 13 11 11 6 5 7 4 4 7 7 8 8 9 9 9 9 11
5 8 4 4 1 3 4 7 13 9 2 0 2 2 0 1 2 1 0 1 1 1 1 2 3 4 6 7 4 5 0 2 1 2 1 1 0 0 1 1 1 1 0 0 3 2 1 2 1 2 6 3 2 1 1 4 4 3 4 4 4 4 5 8 4 1 3 6 10 9 6 8 11 11 9 8 8 7 6 7 8 8 9 9 10 12 12
4 3 3 1 5 4 7 10 7 1 1 1 1 1 1 0 1 0 0 1 0 2 1 1 1 1 1 1 2 3 3 2 1 2 3 0 1 2 1 0 0 0 1 0 2 2 2 1 1 1 5 3 3 2 2 3 4 2 2 3 4 4 4 2 2 4 6 6 4 4 5 7 9 10 10 10 10 9 8 8 8 8 8 9 10 9 7
4 5 6 7 7 9 8 3 0 0 1 0 2 0 0 1 1 1 1 1 2 1 1 0 1 1 3 5 4 3 1 0 2 1 1 0 0 0 1 1 2 1 1 2 1 2 2 0 2 4 6 6 5 2 3 4 2 4 3 4 5 5 4 4 5 3 5 9 7 6 6 7 8 8 9 10 9 9 9 8 8 8 10 7 7 8 8
15 10 2 2 2 1 1 1 1 1 1 1 2 1 1 0 1 1 1 1 1 1 2 0 2 1 0 1 2 1 1 1 0 1 1 0 0 2 2 1 1 0 0 1 1 2 1 1 1 6 6 5 3 4 5 5 5 4 4 4 6 6 7 8 7 6 4 6 9 8 8 8 8 8 8 9 9 8 6 7 10 8 7 9 9 8 9
4 2 2 0 1 2 0 1 0 1 1 1 1 1 0 0 1 1 0 1 2 1 2 4 4 5 2 2 0 1 0 1 3 2 1 0 1 0 1 0 0 2 0 1 1 0 2 3 7 5 2 3 2 3 4 4 4 3 3 2 2 3 4 4 5 6 4 3 3 4 6 7 6 5 5 7 11 11 8 7 7 10 9 9 8 9 8
1 1 1 0 0 1 1 2 2 2 2 1 1 1 2 1 1 1 2 2 0 3 4 1 3 1 4 4 0 0 1 1 1 1 1 0 1 0 1 0 1 2 1 1 1 2 1 2 5 4 5 4 5 4 4 4 6 7 6 4 4 4 5 6 6 6 6 6 7 6 6 7 8 8 7 7 7 10 11 9 6 8 9 9 9 8 7
2 0 1 2 2 2 1 0 0 0 1 1 0 2 1 2 1 1 3 1 2 5 6 5 4 1 3 3 1 1 1 1 1 0 0 1 1 0 0 0 1 0 1 2 1 2 4 6 7 7 6 5 5 5 5 4 4 4 7 7 6 5 5 6 6 7 7 6 5 6 7 6 8 9 8 7 6 7 8 9 9 10 9 9 9 10 8
0 0 0 0 1 1 0 1 0 0 0 0 0 2 2 3 3 5 3 0 3 5 4 4 4 4 1 2 0 1 1 1 1 1 0 1 0 0 1 1 1 0 1 1 2 4 4 7 6 6 6 3 3 4 5 5 4 5 6 5 7 7 5 5 6 7 6 7 7 7 6 7 7 7 7 6 5 5 7 9 9 9 11 12 10 9 10
0 1 0 1 2 0 0 1 1 1 0 0 1 2 3 2 2 3 4 2 5 2 4 3 2 1 0 1 1 0 1 0 1 1 0 1 1 2 1 1 1 1 1 2 4 5 5 5 6 5 4 3 5 6 6 6 6 6 6 7 7 7 7 6 5 5 6 8 8 8 7 6 7 7 8 9 7 5 6 8 9 9 9 8 9 10 11
1 1 0 1 0 1 1 1 1 1 1 4 3 1 2 5 3 5 6 2 3 5 4 2 2 1 1 0 1 0 1 0 1 1 1 1 1 2 1 1 0 1 4 6 6 5 5 6 4 3 3 2 4 6 6 7 8 8 9 9 9 9 8 8 8 7 7 7 7 8 7 7 7 7 6 6 8 7 5 7 8 7 8 10 10 10 10
0 1 0 0 2 1 2 0 1 1 4 5 4 4 3 3 5 5 2 5 6 5 2 1 0 0 1 1 0 1 1 1 2 1 1 0 1 1 1 0 3 3 1 3 5 7 8 6 3 3 3 4 4 6 6 6 6 7 7 6 6 7 8 8 7 7 7 7 8 8 8 7 7 7 8 10 8 7 6 6 6 8 8 9 11 11 11
0 0 2 2 1 2 1 2 1 3 5 3 3 3 3 5 3 5 2 3 6 5 5 1 1 0 1 1 1 1 2 1 2 2 3 3 1 3 2 2 4 7 8 6 5 5 6 4 4 5 3 4 5 6 7 8 8 8 7 6 7 6 6 6 8 8 7 7 7 8 8 8 9 9 8 6 7 8 7 6 7 8 9 8 9 11 12
0 0 0 1 0 1 1 1 0 2 4 3 2 3 0 3 3 5 2 4 3 4 2 1 1 1 1 1 2 1 0 2 1 0 0 2 3 2 3 6 5 4 6 5 7 5 5 5 5 5 5 6 6 7 6 5 5 5 6 7 7 7 7 6 7 7 7 6 6 7 8 7 7 6 6 7 7 8 8 8 6 6 7 8 9 10 11
Wind_Direction
356 353 349 348 346 343 341 340 344 340 5 16 336 310 3 40 174 262 269 196 142 57 16 297 327 302 254 306 287 274 272 254 276 306 296 305 272 292 230 211 139 242 140 158 115 139 136 153 173 198 131 216 208 211 169 146 152 140 214 149 209 131 106 145 288 300 295 296 299 22 186 163 162 230 155 141 198 190 176 171 179 152 139 89 29 200 251
354 350 350 349 348 347 345 346 342 340 37 107 303 18 103 191 290 359 50 176 81 330 305 350 306 277 276 274 261 280 273 276 289 250 271 256 334 224 263 334 188 341 125 138 153 202 124 226 136 49 258 206 214 145 172 156 162 156 218 159 212 141 277 120 89 73 309 347 6 39 10 179 165 181 200 192 149 93 154 103 79 148 212 162 144 227 263
355 352 350 349 348 347 347 347 342 336 343 286 100 39 323 295 259 229 315 86 156 228 202 258 278 310 324 319 306 314 282 230 229 235 258 275 267 334 284 213 73 315 153 147 101 74 150 139 233 138 166 227 32 162 159 188 161 182 180 167 162 155 193 140 148 160 166 183 187 217 209 207 239 223 165 182 163 136 113 168 140 191 255 135 144 195 264
355 353 352 352 351 350 351 346 336 337 335 126 308 234 293 250 130 319 24 120 195 262 286 275 291 306 311 298 254 236 255 273 234 223 253 220 264 240 265 308 148 247 61 69 71 98 37 119 198 156 212 262 301 169 169 172 178 203 163 150 136 163 124 139 152 152 176 195 209 254 125 108 186 214 171 195 187 181 143 114 132 190 183 181 231 162 148
355 354 354 354 354 354 352 348 341 341 341 332 270 279 193 299 170 155 206 2 215 253 197 246 224 233 224 285 348 292 297 287 299 145 293 200 184 272 195 244 28 329 87 134 84 71 113 80 133 188 175 241 235 266 169 182 183 177 160 151 95 96 170 214 152 185 201 178 193 261 9 194 191 150 200 186 166 170 142 165 213 164 111 235 253 171 141
357 356 356 354 355 357 353 348 347 341 328 29 112 297 247 327 279 199 201 149 229 153 252 216 231 239 237 267 297 287 308 334 326 309 263 313 227 172 347 24 263 272 219 129 117 142 104 133 184 189 199 113 312 91 19 173 199 165 154 182 136 139 173 229 132 206 235 211 230 255 97 40 235 184 172 184 187 180 178 201 176 145 177 208 187 178 171
357 358 357 354 355 359 358 356 353 2 13 82 133 303 235 221 274 267 243 227 216 186 231 213 236 258 223 257 269 286 279 292 284 296 311 352 341 11 46 331 332 351 234 153 141 150 118 239 309 179 169 171 137 136 19 284 280 169 126 170 141 116 209 181 151 152 9 12 15 57 127 103 38 24 184 180 174 192 197 170 174 175 156 185 161 179 188
355 355 356 355 354 355 358 360 356 3 40 76 294 240 322 314 331 316 261 228 261 245 230 168 9 250 249 229 242 247 252 302 338 316 150 339 302 328 62 326 328 341 60 123 102 210 176 170 150 207 113 42 109 198 187 146 90 152 161 162 285 131 249 123 103 115 352 344 30 63 75 123 118 330 359 99 160 85 76 106 117 92 46 101 154 160 159
353 357 359 357 354 354 356 359 356 355 341 303 314 304 187 271 284 299 319 311 248 231 171 293 326 246 312 176 263 213 294 355 353 287 213 195 244 21 360 326 323 15 45 48 43 324 213 144 169 166 141 172 208 139 256 136 151 169 144 210 107 95 182 55 80 114 301 355 49 56 64 71 103 64 6 52 143 164 206 145 207 139 148 130 130 148 189
353 355 357 359 360 356 355 357 358 355 351 232 295 284 350 314 282 312 322 291 334 352 305 286 278 294 214 191 260 334 267 258 342 331 296 233 237 251 15 321 19 331 35 22 4 330 172 170 136 136 134 114 116 114 132 142 163 166 167 67 132 140 132 143 110 125 266 255 77 83 43 77 37 229 233 225 276 299 288 328 108 182 140 129 150 210 195
352 353 356 358 359 1 358 355 357 0 356 341 286 271 346 1 312 324 289 282 301 257 308 314 92 255 329 298 310 314 291 311 50 317 283 0 331 108 355 320 37 318 17 3 278 283 203 125 76 93 103 61 109 95 96 68 58 136 155 116 64 128 137 147 147 150 193 148 3 75 89 163 227 247 227 192 171 179 156 208 216 181 144 190 169 154 124
350 353 355 355 357 359 0 359 356 357 359 341 331 295 230 251 273 259 310 0 293 303 314 289 235 287 281 281 247 258 287 284 257 172 245 285 288 318 320 17 93 41 250 242 16 88 87 86 35 68 73 20 61 77 64 60 31 70 301 147 139 143 122 126 180 110 174 142 54 65 189 228 242 277 221 203 221 206 196 233 262 229 239 96 101 149 157
349 351 353 353 355 356 357 359 358 355 354 338 331 316 283 203 297 296 269 286 286 326 330 312 307 286 269 285 279 261 251 263 264 236 241 268 301 333 259 155 157 253 341 37 61 76 98 281 330 309 291 350 312 57 44 40 33 5 28 343 131 151 126 156 54 91 70 62 67 156 230 249 292 291 351 157 135 190 120 65 229 237 199 166 156 166 157
348 349 351 352 353 354 355 357 356 356 348 345 329 314 307 242 260 279 283 337 295 247 256 284 299 319 335 309 272 281 319 300 300 188 248 226 215 267 277 219 217 215 128 92 61 72 356 35 22 26 336 5 5 26 331 51 56 41 0 353 320 144 110 128 87 329 148 164 159 216 303 330 338 349 238 173 165 185 168 185 256 200 189 155 142 135 136
346 347 348 349 351 352 353 354 355 354 349 345 319 307 298 272 223 249 309 303 294 299 230 338 334 319 319 302 37 347 6 305 12 246 239 257 225 227 218 240 238 264 208 86 25 38 127 88 27 67 339 54 75 268 328 46 316 59 35 9 48 103 157 204 122 268 119 131 60 7 26 265 270 228 251 150 154 116 169 107 279 232 231 175 143 147 144
345 346 345 347 348 350 351 352 353 352 351 346 323 317 284 259 241 236 288 302 327 340 309 198 282 285 303 284 40 62 337 326 313 314 334 313 252 312 281 257 286 149 70 73 85 95 51 133 208 90 147 172 262 61 310 359 12 319 28 34 71 29 68 119 137 140 79 68 133 198 172 241 217 240 192 166 167 126 164 57 281 231 170 178 150 150 154
345 345 345 346 346 347 349 351 352 353 352 353 340 325 305 328 216 213 226 245 192 227 289 319 275 231 295 332 17 8 119 344 324 21 345 322 303 286 295 324 328 72 111 77 15 62 39 54 82 133 335 216 93 160 95 48 109 336 329 6 51 43 355 50 68 96 156 135 122 213 196 217 26 228 171 167 140 147 81 347 271 204 176 172 160 159 160
343 344 344 345 345 346 347 349 351 353 354 354 345 326 300 321 233 230 250 271 307 287 269 276 15 352 339 245 279 268 187 9 27 294 234 269 341 318 322 359 350 328 69 91 41 66 72 97 115 147 127 249 157 58 172 194 156 186 163 308 339 359 354 49 154 147 150 135 255 339 305 277 237 190 148 143 165 104 121 210 244 191 172 174 169 166 162
342 342 343 344 345 344 345 346 349 352 354 357 346 329 250 260 242 231 297 271 227 269 265 256 260 253 258 118 185 220 206 187 178 46 315 7 73 259 249 262 178 336 1 132 66 91 110 315 86 97 125 305 19 175 221 108 211 353 122 100 50 54 94 343 82 110 153 185 135 212 238 239 173 282 141 182 115 161 212 233 260 154 178 175 170 163 166
341 341 342 342 343 343 344 344 346 349 352 356 1 319 288 285 221 208 227 282 285 273 286 273 180 214 239 237 289 288 321 19 125 107 68 303 295 357 31 12 324 138 324 62 64 202 94 185 218 93 43 176 231 170 58 286 17 161 207 221 136 195 124 187 155 142 54 40 78 37 209 236 150 125 57 358 140 228 209 161 24 151 158 159 168 165 163
339 339 341 340 341 342 342 342 343 345 349 353 358 336 325 358 35 265 255 267 325 311 299 308 287 235 253 242 229 232 197 281 208 65 189 201 265 42 96 183 235 45 243 116 159 220 155 130 219 182 215 132 209 65 189 173 345 245 166 218 169 212 97 243 271 190 141 142 152 198 216 218 193 153 177 207 195 190 173 143 112 121 144 151 143 154 158
338 338 338 339 339 340 339 339 339 340 345 348 351 318 271 244 269 269 231 229 237 221 239 286 287 280 266 248 232 221 219 217 215 163 137 247 246 208 223 211 243 182 217 128 45 32 15 155 70 103 168 180 13 139 162 99 208 266 337 110 258 212 162 175 169 213 129 191 214 241 236 227 253 71 220 260 285 185 189 163 155 145 171 155 148 152 142
335 336 336 336 337 337 337 336 337 337 340 344 349 351 307 306 302 301 285 228 239 253 271 280 291 279 272 247 225 226 233 235 224 173 149 164 316 273 181 182 299 229 77 123 215 158 190 132 202 160 107 201 157 125 17 108 200 197 173 250 177 333 194 328 87 263 239 263 198 259 303 291 275 328 262 226 304 2 122 139 145 191 155 165 159 149 142
332 334 334 335 334 334 334 333 332 333 334 337 341 324 314 296 287 314 231 236 317 298 310 330 357 357 348 326 340 17 249 248 216 220 166 139 135 305 327 252 267 33 331 240 177 151 191 124 200 129 148 216 98 88 147 250 241 193 111 251 309 260 140 61 115 229 123 251 14 5 256 309 323 337 344 351 189 208 140 136 148 131 124 110 122 144 147
330 331 332 332 332 332 331 329 328 329 329 329 332 300 275 286 236 193 349 342 329 54 294 312 301 236 250 251 257 250 235 253 319 131 129 163 187 172 227 273 178 205 264 228 115 60 53 122 182 151 125 246 123 230 227 118 269 166 169 246 88 255 170 80 174 112 144 234 295 276 259 246 263 222 240 71 6 64 79 118 118 114 106 121 133 128 131
328 328 328 328 328 328 328 326 326 325 324 323 329 315 312 267 226 124 218 267 161 107 338 312 281 308 318 354 347 264 259 57 32 49 73 177 221 214 246 301 356 39 94 63 100 126 125 64 83 120 116 252 76 137 198 204 159 116 134 219 197 179 140 214 163 136 277 286 266 293 334 347 354 343 162 185 157 116 101 113 124 124 123 123 128 143 147
326 326 325 325 323 324 324 324 324 324 323 321 322 293 260 271 213 189 181 217 313 333 16 271 278 302 358 323 274 358 339 47 83 166 80 49 41 41 94 126 160 30 67 49 41 122 72 95 99 129 142 212 111 134 146 84 126 150 173 238 191 105 134 158 73 58 312 210 221 172 124 231 229 244 214 152 153 125 118 116 121 132 133 139 133 132 136
324 324 323 321 321 321 321 322 323 324 325 322 313 293 241 230 227 200 223 190 44 208 247 272 296 293 311 269 274 316 314 41 43 53 50 41 38 50 60 74 107 79 25 113 272 32 36 69 64 214 131 276 59 28 30 125 74 52 45 244 185 147 194 141 164 163 246 251 208 174 152 186 235 185 170 152 156 140 139 149 147 148 146 144 139 137 138
322 321 320 319 319 319 319 320 322 324 327 327 307 306 289 213 220 206 230 205 122 75 249 266 292 329 0 283 327 330 339 51 45 59 58 27 43 39 56 49 83 138 96 67 90 102 103 127 166 118 74 199 102 167 40 172 110 210 243 222 167 233 178 179 176 166 261 253 171 164 143 197 162 139 140 141 149 133 121 124 140 147 151 151 145 147 144
321 319 319 317 316 316 316 317 319 322 328 331 323 33 25 16 193 189 69 52 55 82 348 358 355 261 309 331 296 298 317 353 29 43 49 21 23 26 354 58 56 61 92 129 140 90 216 142 308 287 306 357 153 173 80 167 121 245 268 273 256 275 229 201 155 108 303 193 138 166 107 85 93 121 114 119 121 137 138 147 148 144 145 147 141 143 146
319 318 317 315 314 313 312 312 314 318 326 324 351 50 54 123 250 354 5 40 43 47 204 141 239 298 335 263 243 293 324 335 0 22 33 73 348 358 314 104 76 87 34 356 44 118 135 24 18 349 357 45 104 105 162 134 266 309 250 259 272 262 155 179 228 205 126 104 93 87 78 95 116 90 63 94 106 109 106 104 123 136 138 139 141 141 144
318 317 314 313 312 310 309 308 308 309 282 236 186 167 172 186 253 289 292 290 149 117 184 314 333 358 292 311 292 288 350 318 48 2 11 27 355 4 359 48 64 9 111 105 169 67 54 193 116 308 37 321 80 92 81 83 145 238 318 337 340 46 114 134 104 107 113 128 108 72 70 71 175 139 177 165 121 114 120 125 126 124 124 122 126 132 136
317 315 313 311 309 308 306 304 300 294 244 251 255 276 280 279 276 279 279 118 77 177 128 96 220 247 320 260 317 324 337 346 6 22 325 342 343 12 16 6 18 38 15 85 3 83 199 124 152 60 345 30 82 107 91 170 216 236 262 283 317 40 57 38 119 126 147 158 61 141 185 187 196 132 121 124 124 121 119 116 122 116 115 119 119 119 119
317 315 312 309 307 307 305 301 298 288 268 258 278 247 236 205 216 248 207 115 92 157 86 139 301 322 266 312 32 282 16 72 300 33 13 307 238 59 297 13 351 78 349 68 266 80 337 62 52 290 339 13 49 81 295 263 249 279 335 43 68 75 86 84 98 134 148 336 25 62 107 114 107 104 93 98 97 101 111 114 123 124 125 126 127 130 129
317 314 311 309 307 305 305 306 320 122 180 239 260 263 191 280 324 294 227 181 113 328 30 331 105 326 336 350 47 272 310 69 325 335 106 303 40 43 322 59 321 64 306 85 47 80 16 325 171 70 266 292 47 298 249 249 283 130 101 91 105 109 88 82 151 213 6 107 90 106 116 118 111 109 120 118 121 130 124 126 131 129 129 128 128 132 135
317 314 312 309 306 305 300 123 128 103 57 258 229 290 301 308 313 309 171 193 135 158 101 255 62 231 158 243 311 282 306 75 345 315 240 297 356 40 92 104 63 72 242 68 160 349 59 297 29 288 309 50 231 187 222 200 211 214 193 183 190 160 175 185 158 122 84 97 110 113 114 118 121 128 124 130 132 135 132 129 129 126 124 129 132 131 128
318 314 313 307 305 107 7 193 316 81 203 263 282 292 290 285 263 67 62 88 316 80 178 168 351 241 168 224 257 278 47 322 335 15 337 35 240 299 37 41 85 313 37 7 15 38 298 50 102 90 306 184 251 225 210 189 192 186 201 196 190 191 99 93 120 116 95 87 96 107 118 116 112 116 123 134 143 140 136 139 145 138 139 138 138 135 139
317 315 330 352 25 39 28 343 58 307 319 301 308 310 8 51 153 343 356 73 273 59 339 76 232 245 349 90 252 250 68 274 65 355 302 225 88 307 4 96 243 316 157 249 252 177 46 39 40 134 268 257 252 254 239 216 217 208 186 167 168 159 138 135 132 113 106 89 71 91 87 105 118 143 136 139 143 146 145 136 131 134 132 134 135 133 131
317 309 16 10 73 235 198 259 326 325 309 273 268 159 262 10 73 335 258 294 19 286 282 140 245 178 143 206 277 293 165 53 3 30 101 272 129 299 18 77 307 70 334 24 292 37 305 338 1 14 287 287 336 284 237 197 176 179 161 165 156 160 149 160 155 143 154 169 170 169 159 161 156 162 148 132 123 118 133 132 129 133 137 135 136 141 141
347 7 2 340 333 264 292 297 322 320 308 28 332 98 179 327 106 266 322 87 305 289 77 255 212 174 189 200 220 296 351 93 228 277 204 298 345 94 266 94 270 90 351 80 260 32 99 296 292 29 293 278 254 265 210 165 141 163 154 153 158 173 177 165 181 187 146 153 162 165 156 146 145 142 149 145 138 132 132 135 136 136 139 144 145 147 153
9 328 338 306 281 319 307 318 320 68 59 66 6 8 64 326 298 185 72 67 223 236 195 183 351 306 294 60 123 227 287 84 119 122 117 106 245 90 50 57 245 80 334 279 282 60 74 81 351 208 246 229 225 230 183 128 141 148 161 152 151 155 147 116 105 119 116 109 107 117 135 143 142 143 146 147 145 146 149 144 145 145 138 139 151 152 135
280 281 268 281 286 285 299 302 202 26 16 62 124 266 229 232 328 353 137 146 241 261 324 179 295 237 268 186 205 164 276 166 127 111 103 74 301 132 189 321 5 91 246 236 143 54 72 92 315 293 259 255 257 240 166 155 176 151 167 164 154 148 142 139 126 125 144 144 145 141 142 142 139 138 143 142 144 145 145 143 142 149 153 150 135 129 138
304 300 267 273 317 303 279 337 310 98 128 342 48 0 343 62 232 178 276 270 293 74 286 252 245 232 277 35 302 217 212 227 257 313 61 202 306 54 81 21 45 6 219 349 66 54 29 248 238 252 259 268 242 195 193 179 174 172 170 170 168 167 156 152 155 150 151 146 147 147 147 143 148 150 146 136 132 135 145 151 154 152 144 143 147 143 142
276 236 262 260 323 279 100 154 300 56 2 52 103 202 253 325 310 4 50 302 325 9 0 24 319 58 314 302 123 310 349 342 58 77 52 312 85 325 55 238 228 252 324 39 34 174 233 224 215 230 251 288 269 213 193 162 150 136 136 163 136 144 136 113 105 104 92 69 87 117 125 126 123 120 132 143 145 148 155 156 155 147 148 139 141 151 152
350 337 358 356 357 268 73 282 335 117 203 257 141 180 156 124 285 187 33 264 121 306 316 299 297 334 274 275 24 270 106 215 310 100 242 66 54 18 100 270 255 32 65 255 334 326 345 284 275 289 270 249 230 204 194 176 164 165 165 140 143 139 140 144 146 137 141 144 146 138 133 137 135 143 152 162 164 151 150 154 154 143 149 148 145 143 158
36 25 28 68 333 312 99 204 357 51 302 151 11 206 150 242 188 257 251 163 309 317 345 312 304 255 269 266 144 267 346 83 68 240 158 63 101 255 241 253 74 66 15 47 44 238 223 240 276 282 270 247 215 189 178 182 171 140 130 157 181 169 175 156 159 156 157 146 146 142 146 147 146 147 159 166 161 160 155 147 152 155 148 142 155 160 161
341 343 108 122 102 274 85 120 242 168 152 250 204 180 212 268 223 233 263 316 278 266 273 256 238 203 242 300 321 338 26 50 114 273 83 83 179 265 16 107 262 170 138 272 256 255 269 260 247 250 271 250 196 176 169 171 171 169 176 157 159 170 170 162 161 160 164 150 145 141 147 155 157 154 143 143 168 168 155 154 155 152 153 165 166 154 155
302 263 53 117 245 213 108 238 271 300 233 209 290 257 261 276 6 336 288 237 245 306 320 350 5 356 300 272 100 188 270 318 101 288 153 163 36 40 11 36 301 252 188 179 235 222 236 251 251 263 266 217 183 170 174 175 182 179 174 166 171 165 168 164 169 163 151 152 156 158 159 157 149 150 158 165 165 170 163 162 160 165 162 147 143 154 160
163 107 65 206 204 141 231 247 40 184 260 316 277 299 349 19 331 292 289 289 319 313 276 188 208 126 253 200 113 113 265 325 107 234 28 36 108 209 147 219 316 311 264 181 222 222 224 240 245 256 269 207 195 188 193 186 180 180 181 178 178 176 169 170 173 168 168 162 158 158 164 163 155 158 159 155 157 179 178 167 163 161 154 152 156 161 167
90 340 11 64 351 317 258 69 70 322 317 337 15 345 333 3 329 294 291 348 325 326 343 64 155 173 253 125 304 4 250 244 147 43 62 179 194 166 75 326 228 194 260 236 228 247 247 252 255 279 242 214 206 195 191 198 190 189 188 179 166 164 173 169 164 162 167 168 168 168 161 152 159 158 159 172 178 161 153 163 171 163 163 164 160 165 171
319 126 241 184 165 224 0 349 322 313 322 326 332 312 355 320 273 290 337 347 330 359 45 46 308 79 248 29 60 99 240 188 91 158 161 195 181 118 179 208 240 213 227 231 223 249 263 257 211 242 235 227 217 210 203 197 189 189 179 173 175 171 166 164 164 163 171 174 168 151 155 169 174 172 175 155 138 144 156 172 177 173 167 167 171 172 175
43 131 290 303 234 164 172 202 162 219 230 244 271 250 130 292 259 272 308 357 2 58 336 283 33 340 70 183 220 207 24 44 47 71 34 269 153 147 208 200 230 227 233 279 290 265 256 248 220 232 238 235 224 216 204 187 179 181 177 176 168 167 167 167 168 170 166 162 168 171 177 176 171 165 148 144 143 146 160 182 194 183 174 173 179 183 184